[[{"header":{"parameterUnit":"m.s-1","parameterCategory":1,"la1":30.2991,"la2":30.254,"lo1":-89.0895,"lo2":-89.0444,"dy":0.0017,"dx":0.0017,"nx":28,"ny":28,"refTime":"2025-04-22T21:00:00:Z","depth":0,"parameterNumber":2,"parameterNumberName":"U-component_of_WINDS"},"data":[0,0,0,0,0,0,0,0,0,0,0,0,0,0,0,0,0,0,0,0,0,0,0,0,0,0,0,0,0,0,0,0,0,0,0,0,0,0,0,0,0,0,0,0,0,0,0,0,0,0,0,0,0,0,0,0,0,0,-1.3901,-1.3901,0,-1.387,-1.387,-1.387,-1.3828,-1.3827,-1.3826,-1.3825,-1.3794,-1.3794,-1.3794,0,0,0,0,0,0,0,0,0,0,0,0,0,-1.3923,-1.3923,-1.3901,-1.3901,-1.39,-1.387,-1.387,-1.3869,-1.3828,-1.3827,-1.3826,-1.3825,-1.3794,-1.3794,-1.3794,0,0,0,0,0,0,0,0,0,0,0,0,0,-1.3905,-1.3923,-1.3901,-1.3876,-1.3873,-1.387,-1.387,-1.3869,-1.3828,-1.3827,-1.3826,-1.3825,-1.3794,-1.3794,-1.3794,-1.3813,0,0,-1.3793,-1.3793,0,0,0,0,0,0,0,0,-1.3906,-1.3904,-1.388,-1.3877,-1.3874,-1.3852,-1.3866,-1.3851,-1.3828,-1.3845,-1.3825,-1.3824,-1.3814,-1.3812,-1.3809,-1.3812,-1.3811,-1.3793,-1.3793,-1.3793,-1.3793,0,0,0,0,0,0,0,-1.3907,-1.3905,-1.3889,-1.3879,-1.3876,-1.3866,-1.3862,-1.3863,-1.3836,-1.3843,-1.384,-1.3837,-1.3812,-1.3809,-1.3808,-1.381,-1.3793,-1.3793,-1.3793,-1.3792,-1.3827,-1.3828,0,0,0,0,0,0,-1.3912,-1.3907,-1.389,-1.3888,-1.3888,-1.3866,-1.3862,-1.386,-1.3836,-1.3831,-1.3838,-1.3835,-1.381,-1.3808,-1.3806,-1.3827,-1.3793,-1.3792,-1.3792,-1.3826,-1.3827,-1.3828,0,0,0,0,0,0,-1.3913,-1.3911,-1.3891,-1.3896,-1.3893,-1.3867,-1.3865,-1.386,-1.3857,-1.3832,-1.3827,-1.384,-1.3809,-1.3807,-1.3812,-1.3825,-1.3792,-1.3792,-1.3825,-1.3826,-1.3828,-1.3869,0,0,0,0,0,0,-1.3914,-1.3912,-1.3919,-1.3897,-1.3893,-1.3897,-1.3866,-1.386,-1.3856,-1.3852,-1.3832,-1.3828,-1.3808,-1.3812,-1.3812,-1.3825,-1.3792,-1.3823,-1.3825,-1.3827,-1.3867,-1.3872,-1.3877,0,0,0,0,0,-1.3915,-1.3932,-1.392,-1.3918,-1.3901,-1.3898,-1.3896,-1.3873,-1.3858,-1.3864,-1.3849,-1.3828,-1.3824,-1.3813,-1.3812,-1.3825,-1.3822,-1.3825,-1.3827,-1.3864,-1.3871,-1.3877,0,0,0,0,0,0,-1.3957,-1.3929,-1.3914,-1.3925,-1.3914,-1.3891,-1.3899,-1.3881,-1.3874,-1.3871,-1.3843,-1.3839,-1.3847,-1.3837,-1.3825,-1.3842,-1.382,-1.3823,-1.3849,-1.3855,-1.386,-1.3862,-1.3792,0,0,0,0,0,-1.3967,-1.3967,-1.3942,-1.3954,-1.3949,-1.3925,-1.3923,-1.3906,-1.3894,-1.3889,-1.3873,-1.3862,-1.3858,-1.3856,-1.3851,-1.3865,-1.386,-1.3873,-1.3879,-1.3883,-1.3885,-1.3891,-1.3896,-1.3836,-1.3836,-1.3836,0,0,-1.3989,-1.3973,-1.3975,-1.3962,-1.3952,-1.3952,-1.3922,-1.3923,-1.3922,-1.3889,-1.3893,-1.3881,-1.3866,-1.3876,-1.3879,-1.3867,-1.39,-1.3886,-1.389,-1.3889,-1.3894,-1.3899,-1.3904,-1.3838,-1.3838,-1.3837,0,0,-1.4028,-1.4017,-1.4025,-1.4015,-1.3999,-1.3983,-1.3985,-1.3965,-1.3955,-1.3959,-1.3933,-1.3932,-1.3927,-1.3917,-1.3911,-1.3947,-1.3927,-1.3946,-1.3972,-1.3978,-1.3983,-1.3987,-1.3999,-1.4004,-1.3948,-1.3948,-1.3948,0,-1.4057,-1.4056,-1.4031,-1.4034,-1.4029,-1.3999,-1.4007,-1.3998,-1.3982,-1.3979,-1.3966,-1.3958,-1.3946,-1.3952,-1.3961,-1.3957,-1.3958,-1.3948,-1.3984,-1.3988,-1.3992,-1.4003,-1.4007,-1.3951,-1.395,-1.395,-1.395,0,-1.4091,-1.4091,-1.41,-1.4084,-1.408,-1.4086,-1.4062,-1.4061,-1.4045,-1.403,-1.4033,-1.4018,-1.4009,-1.4009,-1.3994,-1.4013,-1.4006,-1.399,-1.3966,-1.4,-1.401,-1.4014,-1.3954,-1.3953,-1.3952,-1.3952,0,0,-1.4156,-1.4127,-1.4131,-1.4123,-1.4104,-1.4103,-1.4107,-1.4098,-1.4097,-1.4087,-1.4089,-1.4085,-1.4069,-1.4062,-1.4046,-1.4051,-1.4079,-1.4033,-1.4032,-1.4041,-1.4098,-1.4111,-1.4116,-1.4066,-1.4067,-1.4068,-1.4099,0,-1.4191,-1.4196,-1.4174,-1.4184,-1.4183,-1.4155,-1.4158,-1.4146,-1.4133,-1.413,-1.4114,-1.4111,-1.4091,-1.4087,-1.4091,-1.4075,-1.409,-1.4072,-1.4067,-1.4068,-1.4071,-1.4121,-1.4135,-1.4165,-1.4103,-1.4104,-1.4104,0,-1.4232,-1.4224,-1.4234,-1.4214,-1.4213,-1.4216,-1.4206,-1.4204,-1.419,-1.4179,-1.4172,-1.4153,-1.4155,-1.4133,-1.4135,-1.4124,-1.412,-1.4112,-1.4113,-1.4111,-1.4088,-1.412,-1.4175,-1.4179,-1.411,-1.411,-1.4109,0,-1.4277,-1.4269,-1.4274,-1.4268,-1.4245,-1.4248,-1.4238,-1.4223,-1.4219,-1.421,-1.4207,-1.4199,-1.4194,-1.4188,-1.4167,-1.4153,-1.4171,-1.4148,-1.4162,-1.4162,-1.4166,-1.4166,-1.4221,-1.4166,-1.4166,-1.4166,-1.4166,0,-1.4318,-1.4325,-1.4294,-1.4297,-1.4304,-1.4279,-1.4286,-1.4274,-1.4261,-1.4261,-1.4236,-1.4236,-1.4208,-1.4205,-1.4188,-1.4192,-1.419,-1.4181,-1.4177,-1.4183,-1.4184,-1.418,-1.4177,-1.4167,-1.4167,-1.4166,-1.4166,0,-1.4369,-1.4348,-1.4352,-1.4329,-1.4324,-1.433,-1.431,-1.4312,-1.4297,-1.4297,-1.4295,-1.4271,-1.4267,-1.4245,-1.4235,-1.4223,-1.4233,-1.4224,-1.4237,-1.4234,-1.4249,-1.4248,-1.4302,-1.4308,-1.425,-1.4251,-1.4251,0,-1.4396,-1.4401,-1.4379,-1.4377,-1.4369,-1.4366,-1.4362,-1.4337,-1.4334,-1.4318,-1.4321,-1.4315,-1.4308,-1.4301,-1.4283,-1.4275,-1.4265,-1.4285,-1.4264,-1.427,-1.4265,-1.4264,-1.4264,-1.4289,-1.429,-1.4291,-1.4291,0,-1.4446,-1.4436,-1.4431,-1.4422,-1.4417,-1.4409,-1.4399,-1.4399,-1.4372,-1.4369,-1.4364,-1.4359,-1.4348,-1.4342,-1.4331,-1.432,-1.4301,-1.4298,-1.4301,-1.4307,-1.4314,-1.431,-1.4249,-1.4297,-1.4296,-1.4296,-1.4295,-1.4295,-1.4486,-1.4489,-1.4473,-1.4468,-1.4458,-1.445,-1.445,-1.4435,-1.443,-1.442,-1.4406,-1.4402,-1.4387,-1.437,-1.4362,-1.4358,-1.4347,-1.4352,-1.4352,-1.4354,-1.4357,-1.4315,-1.4356,-1.4356,-1.4356,-1.4356,-1.4356,0,-1.4534,-1.4523,-1.4518,-1.4505,-1.4501,-1.4484,-1.4472,-1.447,-1.4467,-1.4455,-1.4449,-1.4443,-1.4436,-1.4417,-1.4408,-1.4409,-1.44,-1.4407,-1.4407,-1.4404,-1.4367,-1.4365,-1.4415,-1.4415,-1.4415,-1.4415,-1.4415,-1.4415,-1.4559,-1.4562,-1.455,-1.4548,-1.4537,-1.4533,-1.4528,-1.4519,-1.451,-1.4504,-1.4498,-1.4486,-1.4471,-1.4461,-1.4453,-1.4448,-1.4446,-1.4456,-1.4448,-1.4413,-1.4407,-1.4402,-1.44,-1.4456,-1.4456,-1.4485,-1.4485,-1.4485]},{"header":{"parameterUnit":"m.s-1","parameterCategory":1,"la1":30.2991,"la2":30.254,"lo1":-89.0895,"lo2":-89.0444,"dy":0.0017,"dx":0.0017,"nx":28,"ny":28,"refTime":"2025-04-22T21:00:00:Z","depth":0,"parameterNumber":3,"parameterNumberName":"V-component_of_WINDS"},"data":[0,0,0,0,0,0,0,0,0,0,0,0,0,0,0,0,0,0,0,0,0,0,0,0,0,0,0,0,0,0,0,0,0,0,0,0,0,0,0,0,0,0,0,0,0,0,0,0,0,0,0,0,0,0,0,0,0,0,1.848,1.848,0,1.8523,1.8524,1.8524,1.8513,1.8513,1.8512,1.8511,1.8555,1.8557,1.8559,0,0,0,0,0,0,0,0,0,0,0,0,0,1.8389,1.8391,1.848,1.848,1.8481,1.8523,1.8524,1.8524,1.8514,1.8513,1.8511,1.8511,1.8554,1.8557,1.8559,0,0,0,0,0,0,0,0,0,0,0,0,0,1.843,1.8391,1.848,1.8481,1.8481,1.8523,1.8524,1.8524,1.8514,1.8512,1.8511,1.851,1.8554,1.8556,1.8559,1.8603,0,0,1.8568,1.857,0,0,0,0,0,0,0,0,1.8428,1.8433,1.848,1.8481,1.8481,1.8512,1.8508,1.8551,1.8514,1.8501,1.8511,1.8509,1.8542,1.8545,1.8556,1.8605,1.8607,1.8569,1.857,1.8572,1.8572,0,0,0,0,0,0,0,1.8425,1.8431,1.8497,1.8481,1.8481,1.8479,1.8484,1.8516,1.8528,1.8502,1.8502,1.8507,1.8542,1.8553,1.8557,1.8607,1.8568,1.8571,1.8573,1.8574,1.8697,1.8698,0,0,0,0,0,0,1.8421,1.8429,1.8496,1.8498,1.8451,1.8482,1.8487,1.8503,1.8528,1.853,1.8508,1.8506,1.8549,1.8554,1.8559,1.8613,1.8572,1.8574,1.8576,1.8695,1.8697,1.8699,0,0,0,0,0,0,1.8419,1.8427,1.8494,1.8464,1.8472,1.8485,1.8503,1.8505,1.8516,1.8532,1.8534,1.8518,1.8548,1.8555,1.8593,1.8614,1.8576,1.8578,1.8693,1.8696,1.8698,1.872,0,0,0,0,0,0,1.8417,1.8427,1.8443,1.8464,1.8473,1.8526,1.8504,1.8506,1.8522,1.852,1.8542,1.8544,1.8548,1.8588,1.8596,1.8617,1.8581,1.8692,1.8694,1.8697,1.8718,1.8723,1.8727,0,0,0,0,0,1.8414,1.8447,1.8444,1.8452,1.8494,1.8528,1.8533,1.8537,1.8523,1.854,1.8551,1.8543,1.8611,1.8592,1.86,1.8623,1.869,1.8694,1.8697,1.8715,1.8722,1.8727,0,0,0,0,0,0,1.8427,1.8449,1.8446,1.8487,1.8506,1.8526,1.8547,1.8543,1.8566,1.8563,1.8567,1.8572,1.8611,1.8621,1.86,1.8668,1.8649,1.8654,1.866,1.8666,1.8671,1.8668,1.8583,0,0,0,0,0,1.8435,1.846,1.8478,1.8513,1.8522,1.8533,1.8548,1.855,1.8569,1.8576,1.8589,1.8608,1.8634,1.8651,1.8675,1.8719,1.8725,1.874,1.8745,1.8749,1.8753,1.8779,1.8786,1.871,1.871,1.871,0,0,1.8451,1.8466,1.8482,1.8516,1.853,1.8557,1.854,1.8568,1.8588,1.8581,1.8617,1.8628,1.865,1.8692,1.8711,1.8701,1.8775,1.8753,1.8756,1.8758,1.8783,1.879,1.8797,1.8712,1.8712,1.8711,0,0,1.8494,1.8508,1.8539,1.8554,1.8577,1.8584,1.8592,1.8613,1.862,1.8658,1.8653,1.8678,1.8721,1.8737,1.8751,1.8804,1.8799,1.8812,1.8837,1.8863,1.8869,1.8874,1.8894,1.8901,1.8816,1.8816,1.8816,0,1.8511,1.8551,1.8555,1.8585,1.8601,1.8596,1.8628,1.8643,1.8672,1.8684,1.8673,1.873,1.8744,1.879,1.8803,1.8815,1.8824,1.8809,1.8868,1.8873,1.8878,1.8897,1.8905,1.8818,1.8818,1.8817,1.8817,0,1.8571,1.8599,1.8622,1.8651,1.867,1.87,1.871,1.8729,1.873,1.8738,1.8778,1.8795,1.8824,1.8835,1.8835,1.8883,1.8876,1.8867,1.8847,1.8887,1.8905,1.8912,1.882,1.8819,1.8819,1.8819,0,0,1.8622,1.8655,1.8664,1.8678,1.8704,1.8726,1.8757,1.8786,1.8802,1.8824,1.8851,1.8889,1.8882,1.8898,1.89,1.8923,1.8965,1.8911,1.8911,1.8921,1.902,1.9027,1.9035,1.8962,1.8964,1.8965,1.9018,0,1.8668,1.8723,1.8729,1.8779,1.8806,1.8803,1.8831,1.885,1.886,1.8885,1.8896,1.8924,1.8911,1.8921,1.8943,1.8955,1.8985,1.8951,1.8988,1.8989,1.8983,1.9044,1.9051,1.91,1.9025,1.9026,1.9027,0,1.8728,1.8752,1.8805,1.8829,1.8841,1.8865,1.8893,1.8917,1.894,1.8946,1.8965,1.8966,1.8999,1.8979,1.9027,1.9004,1.9019,1.9028,1.903,1.9033,1.901,1.9049,1.9116,1.9124,1.9038,1.9037,1.9036,0,1.8761,1.8806,1.8844,1.8856,1.8886,1.8903,1.8916,1.8938,1.8956,1.8981,1.8993,1.9021,1.9036,1.9059,1.9068,1.9052,1.9115,1.9095,1.9122,1.9122,1.9134,1.9133,1.9205,1.9145,1.9144,1.9144,1.9144,0,1.8811,1.8843,1.886,1.8883,1.892,1.8927,1.8964,1.8976,1.8996,1.9023,1.9022,1.9047,1.9057,1.9084,1.9091,1.913,1.9137,1.9143,1.9145,1.9143,1.9143,1.9153,1.915,1.9146,1.9146,1.9145,1.9145,0,1.8853,1.8865,1.8906,1.8932,1.8939,1.8965,1.8987,1.901,1.9021,1.9054,1.9063,1.9079,1.9111,1.9123,1.9161,1.9166,1.9212,1.921,1.9204,1.9204,1.923,1.9228,1.9311,1.9323,1.9255,1.9255,1.9256,0,1.8884,1.891,1.8938,1.8956,1.897,1.8999,1.9017,1.9027,1.9046,1.9076,1.9096,1.9128,1.9154,1.9205,1.9221,1.9251,1.9251,1.9278,1.9255,1.9253,1.9252,1.925,1.9254,1.9282,1.9282,1.9283,1.9283,0,1.8939,1.8945,1.8971,1.9001,1.9024,1.9047,1.907,1.9085,1.9098,1.912,1.9153,1.9174,1.9214,1.9246,1.9278,1.9292,1.929,1.9291,1.9299,1.9297,1.9293,1.9297,1.9216,1.9289,1.9288,1.9288,1.9287,1.9287,1.8977,1.9,1.9025,1.9055,1.9074,1.9096,1.912,1.9134,1.9162,1.9196,1.92,1.9236,1.926,1.9302,1.9319,1.9347,1.934,1.9351,1.9354,1.9356,1.9359,1.9289,1.9353,1.9353,1.9353,1.9353,1.9353,0,1.9033,1.9049,1.9077,1.911,1.9134,1.9132,1.9158,1.9179,1.921,1.9234,1.926,1.9299,1.9331,1.935,1.9383,1.9402,1.9403,1.9411,1.9409,1.9413,1.9363,1.9353,1.941,1.941,1.941,1.941,1.941,1.941,1.9064,1.9104,1.9112,1.9162,1.9178,1.9213,1.9229,1.925,1.9268,1.9312,1.9339,1.9352,1.9374,1.9409,1.9438,1.9443,1.9456,1.9464,1.9469,1.9422,1.9416,1.941,1.9401,1.9467,1.9467,1.9516,1.9517,1.9517]}]]